Time,TemperatureF,DewpointF,PressureIn,WindDirection,WindDirectionDegrees,WindSpeedMPH,WindSpeedGustMPH,Humidity,HourlyPrecipIn,Conditions,Clouds,dailyrainin,SoftwareType,DateUTC
2013-02-19 00:02:00,52.0,32.0,30.16,NNW,330,3.0,12.0,47,0.00,,,0.00,,2013-02-19 06:02:00,
2013-02-19 00:11:00,52.0,32.0,30.16,NNW,330,3.0,12.0,47,0.00,,,0.00,,2013-02-19 06:11:00,
2013-02-19 00:21:00,52.0,33.0,30.16,NNW,338,1.0,6.0,48,0.00,,,0.00,,2013-02-19 06:21:00,
2013-02-19 00:32:00,51.0,33.0,30.17,NE,40,1.0,5.0,49,0.00,,,0.00,,2013-02-19 06:32:00,
2013-02-19 00:42:00,51.0,33.0,30.17,NE,40,1.0,5.0,49,0.00,,,0.00,,2013-02-19 06:42:00,
2013-02-19 00:52:00,50.0,32.0,30.17,North,355,1.0,5.0,50,0.00,,,0.00,,2013-02-19 06:52:00,
2013-02-19 01:01:00,49.0,32.0,30.17,NNW,348,1.0,3.0,52,0.00,,,0.00,,2013-02-19 07:01:00,
2013-02-19 01:11:00,49.0,32.0,30.17,NNW,348,1.0,3.0,52,0.00,,,0.00,,2013-02-19 07:11:00,
2013-02-19 01:21:00,49.0,32.0,30.17,NNW,346,1.0,3.0,52,0.00,,,0.00,,2013-02-19 07:21:00,
2013-02-19 01:32:00,49.0,32.0,30.17,NW,317,0.0,3.0,52,0.00,,,0.00,,2013-02-19 07:32:00,
2013-02-19 01:42:00,49.0,32.0,30.17,NW,317,0.0,3.0,52,0.00,,,0.00,,2013-02-19 07:42:00,
2013-02-19 01:51:00,48.0,32.0,30.18,NNW,338,0.0,1.0,54,0.00,,,0.00,,2013-02-19 07:51:00,
2013-02-19 02:02:00,47.0,32.0,30.18,ENE,69,1.0,3.0,55,0.00,,,0.00,,2013-02-19 08:02:00,
2013-02-19 02:11:00,47.0,32.0,30.18,ENE,69,1.0,3.0,55,0.00,,,0.00,,2013-02-19 08:11:00,
2013-02-19 02:21:00,47.0,32.0,30.18,ENE,69,1.0,3.0,55,0.00,,,0.00,,2013-02-19 08:21:00,
2013-02-19 02:31:00,46.0,31.0,30.18,ENE,61,1.0,3.0,55,0.00,,,0.00,,2013-02-19 08:31:00,
2013-02-19 02:42:00,46.0,31.0,30.18,ENE,61,1.0,3.0,55,0.00,,,0.00,,2013-02-19 08:42:00,
2013-02-19 02:52:00,46.0,30.0,30.16,ENE,71,1.0,3.0,54,0.00,,,0.00,,2013-02-19 08:52:00,
2013-02-19 03:01:00,46.0,30.0,30.16,ENE,71,1.0,3.0,53,0.00,,,0.00,,2013-02-19 09:01:00,
2013-02-19 03:11:00,46.0,30.0,30.16,ENE,71,1.0,3.0,53,0.00,,,0.00,,2013-02-19 09:11:00,
2013-02-19 03:21:00,46.0,29.0,30.16,East,92,2.0,6.0,52,0.00,,,0.00,,2013-02-19 09:21:00,
2013-02-19 03:32:00,47.0,29.0,30.16,ENE,76,2.0,6.0,50,0.00,,,0.00,,2013-02-19 09:32:00,
2013-02-19 03:42:00,47.0,29.0,30.16,ENE,76,2.0,6.0,50,0.00,,,0.00,,2013-02-19 09:42:00,
2013-02-19 03:53:00,47.0,29.0,30.17,East,90,2.0,6.0,50,0.00,,,0.00,,2013-02-19 09:53:00,
2013-02-19 04:01:00,46.0,29.0,30.18,NE,51,2.0,5.0,51,0.00,,,0.00,,2013-02-19 10:01:00,
2013-02-19 04:11:00,46.0,29.0,30.18,NE,51,2.0,5.0,51,0.00,,,0.00,,2013-02-19 10:11:00,
2013-02-19 04:21:00,46.0,29.0,30.18,ENE,59,2.0,6.0,52,0.00,,,0.00,,2013-02-19 10:21:00,
2013-02-19 04:32:00,45.0,29.0,30.19,ENE,74,1.0,7.0,53,0.00,,,0.00,,2013-02-19 10:32:00,
2013-02-19 04:42:00,45.0,29.0,30.19,ENE,74,1.0,7.0,53,0.00,,,0.00,,2013-02-19 10:42:00,
2013-02-19 04:52:00,45.0,29.0,30.19,ENE,63,1.0,3.0,54,0.00,,,0.00,,2013-02-19 10:52:00,
2013-02-19 05:01:00,44.0,29.0,30.20,ENE,65,1.0,3.0,56,0.00,,,0.00,,2013-02-19 11:01:00,
2013-02-19 05:11:00,44.0,29.0,30.20,ENE,65,1.0,3.0,56,0.00,,,0.00,,2013-02-19 11:11:00,
2013-02-19 05:21:00,44.0,30.0,30.21,ENE,59,1.0,5.0,57,0.00,,,0.00,,2013-02-19 11:21:00,
2013-02-19 05:32:00,43.0,30.0,30.22,ENE,68,0.0,2.0,59,0.00,,,0.00,,2013-02-19 11:32:00,
2013-02-19 05:42:00,43.0,30.0,30.22,ENE,68,0.0,2.0,59,0.00,,,0.00,,2013-02-19 11:42:00,
2013-02-19 05:52:00,43.0,30.0,30.23,ENE,72,1.0,3.0,60,0.00,,,0.00,,2013-02-19 11:52:00,
2013-02-19 06:01:00,43.0,30.0,30.24,ENE,75,2.0,6.0,59,0.00,,,0.00,,2013-02-19 12:01:00,
2013-02-19 06:12:00,43.0,30.0,30.24,ENE,75,2.0,6.0,59,0.00,,,0.00,,2013-02-19 12:12:00,
2013-02-19 06:21:00,43.0,29.0,30.24,ENE,77,0.0,5.0,58,0.00,,,0.00,,2013-02-19 12:21:00,
2013-02-19 06:32:00,42.0,29.0,30.24,ENE,71,1.0,5.0,60,0.00,,,0.00,,2013-02-19 12:32:00,
2013-02-19 06:42:00,42.0,29.0,30.24,ENE,71,1.0,5.0,60,0.00,,,0.00,,2013-02-19 12:42:00,
2013-02-19 06:52:00,42.0,29.0,30.24,ENE,65,1.0,5.0,60,0.00,,,0.00,,2013-02-19 12:52:00,
2013-02-19 07:02:00,41.0,29.0,30.25,NE,51,0.0,2.0,62,0.00,,,0.00,,2013-02-19 13:02:00,
2013-02-19 07:11:00,41.0,29.0,30.25,NE,51,0.0,2.0,62,0.00,,,0.00,,2013-02-19 13:11:00,
2013-02-19 07:22:00,41.0,29.0,30.27,NE,51,0.0,0.0,63,0.00,,,0.00,,2013-02-19 13:22:00,
2013-02-19 07:32:00,40.0,30.0,30.30,NW,307,0.0,3.0,66,0.00,,,0.00,,2013-02-19 13:32:00,
2013-02-19 07:41:00,40.0,30.0,30.30,NW,307,0.0,3.0,66,0.00,,,0.00,,2013-02-19 13:41:00,
2013-02-19 07:50:00,39.0,30.0,30.33,NW,307,0.0,2.0,69,0.00,,,0.00,,2013-02-19 13:50:00,
2013-02-19 07:52:00,40.0,30.0,30.30,NW,307,0.0,1.0,66,0.00,,,0.00,,2013-02-19 13:52:00,
2013-02-19 08:01:00,39.0,30.0,30.33,NW,307,0.0,2.0,69,0.00,,,0.00,,2013-02-19 14:01:00,
2013-02-19 08:11:00,39.0,30.0,30.33,NW,307,0.0,2.0,69,0.00,,,0.00,,2013-02-19 14:11:00,
2013-02-19 08:21:00,39.0,30.0,30.33,NW,307,0.0,2.0,69,0.00,,,0.00,,2013-02-19 14:21:00,
2013-02-19 08:32:00,39.0,30.0,30.33,NW,307,0.0,2.0,69,0.00,,,0.00,,2013-02-19 14:32:00,
2013-02-19 08:42:00,39.0,30.0,30.33,NW,307,0.0,2.0,69,0.00,,,0.00,,2013-02-19 14:42:00,
2013-02-19 11:01:00,59.0,30.0,30.37,ESE,123,3.0,8.0,33,0.00,,,0.00,,2013-02-19 17:01:00,
2013-02-19 11:21:00,59.0,30.0,30.35,ESE,116,2.0,6.0,33,0.00,,,0.00,,2013-02-19 17:21:00,
2013-02-19 11:32:00,59.0,29.0,30.35,SE,136,1.0,6.0,32,0.00,,,0.00,,2013-02-19 17:32:00,
2013-02-19 11:52:00,60.0,31.0,30.36,ENE,77,3.0,10.0,33,0.00,,,0.00,,2013-02-19 17:52:00,
2013-02-19 12:01:00,62.0,34.0,30.35,ESE,112,1.0,5.0,35,0.00,,,0.00,,2013-02-19 18:01:00,
2013-02-19 12:21:00,63.0,35.0,30.34,SE,139,0.0,3.0,35,0.00,,,0.00,,2013-02-19 18:21:00,
2013-02-19 12:31:00,59.0,28.0,30.34,NNE,18,3.0,7.0,30,0.00,,,0.00,,2013-02-19 18:31:00,
2013-02-19 12:42:00,59.0,28.0,30.33,East,80,2.0,6.0,31,0.00,,,0.00,,2013-02-19 18:42:00,
2013-02-19 12:51:00,59.0,28.0,30.33,East,80,2.0,6.0,31,0.00,,,0.00,,2013-02-19 18:51:00,
2013-02-19 13:01:00,59.0,30.0,30.31,ENE,58,2.0,9.0,33,0.00,,,0.00,,2013-02-19 19:01:00,
2013-02-19 13:21:00,59.0,28.0,30.31,ESE,103,3.0,8.0,30,0.00,,,0.00,,2013-02-19 19:21:00,
2013-02-19 13:31:00,59.0,28.0,30.30,ENE,72,2.0,8.0,31,0.00,,,0.00,,2013-02-19 19:31:00,
2013-02-19 13:41:00,59.0,28.0,30.30,ENE,72,2.0,8.0,31,0.00,,,0.00,,2013-02-19 19:41:00,
2013-02-19 13:51:00,59.0,28.0,30.29,ENE,59,3.0,8.0,31,0.00,,,0.00,,2013-02-19 19:51:00,
2013-02-19 14:01:00,59.0,28.0,30.28,SE,128,3.0,12.0,31,0.00,,,0.00,,2013-02-19 20:01:00,
2013-02-19 14:12:00,59.0,28.0,30.28,SE,128,3.0,12.0,31,0.00,,,0.00,,2013-02-19 20:12:00,
2013-02-19 14:21:00,59.0,28.0,30.27,NE,56,4.0,10.0,30,0.00,,,0.00,,2013-02-19 20:21:00,
2013-02-19 14:32:00,59.0,28.0,30.26,NE,40,5.0,12.0,30,0.00,,,0.00,,2013-02-19 20:32:00,
2013-02-19 14:52:00,59.0,28.0,30.25,ESE,103,2.0,9.0,30,0.00,,,0.00,,2013-02-19 20:52:00,
2013-02-19 15:02:00,60.0,28.0,30.25,ESE,110,2.0,9.0,29,0.00,,,0.00,,2013-02-19 21:02:00,
2013-02-19 15:11:00,60.0,28.0,30.25,ESE,110,2.0,9.0,29,0.00,,,0.00,,2013-02-19 21:11:00,
2013-02-19 15:21:00,60.0,28.0,30.24,ESE,116,6.0,10.0,29,0.00,,,0.00,,2013-02-19 21:21:00,
2013-02-19 15:32:00,60.0,28.0,30.23,ESE,106,3.0,9.0,30,0.00,,,0.00,,2013-02-19 21:32:00,
2013-02-19 15:51:00,60.0,28.0,30.23,East,91,3.0,12.0,29,0.00,,,0.00,,2013-02-19 21:51:00,
2013-02-19 16:02:00,60.0,28.0,30.21,SE,125,3.0,12.0,30,0.00,,,0.00,,2013-02-19 22:02:00,
2013-02-19 16:21:00,60.0,28.0,30.21,ESE,116,3.0,8.0,30,0.00,,,0.00,,2013-02-19 22:21:00,
2013-02-19 16:32:00,59.0,28.0,30.21,ESE,119,3.0,12.0,30,0.00,,,0.00,,2013-02-19 22:32:00,
2013-02-19 16:41:00,59.0,28.0,30.21,ESE,119,3.0,12.0,30,0.00,,,0.00,,2013-02-19 22:41:00,
2013-02-19 16:51:00,59.0,28.0,30.20,SE,139,4.0,9.0,30,0.00,,,0.00,,2013-02-19 22:51:00,
2013-02-19 17:01:00,59.0,28.0,30.20,East,101,4.0,15.0,31,0.00,,,0.00,,2013-02-19 23:01:00,
2013-02-19 17:11:00,59.0,28.0,30.20,East,101,4.0,15.0,31,0.00,,,0.00,,2013-02-19 23:11:00,
2013-02-19 17:21:00,59.0,28.0,30.20,ESE,111,3.0,10.0,31,0.00,,,0.00,,2013-02-19 23:21:00,
2013-02-19 17:32:00,59.0,29.0,30.20,ESE,115,2.0,6.0,32,0.00,,,0.00,,2013-02-19 23:32:00,
2013-02-19 17:41:00,59.0,29.0,30.20,ESE,115,2.0,6.0,32,0.00,,,0.00,,2013-02-19 23:41:00,
2013-02-19 17:52:00,58.0,28.0,30.20,East,97,2.0,12.0,32,0.00,,,0.00,,2013-02-19 23:52:00,
2013-02-19 18:01:00,58.0,30.0,30.20,East,92,1.0,6.0,34,0.00,,,0.00,,2013-02-20 00:01:00,
2013-02-19 18:11:00,58.0,30.0,30.20,East,92,1.0,6.0,34,0.00,,,0.00,,2013-02-20 00:11:00,
2013-02-19 18:21:00,57.0,29.0,30.21,East,96,1.0,3.0,34,0.00,,,0.00,,2013-02-20 00:21:00,
2013-02-19 18:31:00,56.0,29.0,30.20,SE,134,1.0,3.0,35,0.00,,,0.00,,2013-02-20 00:31:00,
2013-02-19 18:42:00,56.0,29.0,30.20,SE,134,1.0,3.0,35,0.00,,,0.00,,2013-02-20 00:42:00,
2013-02-19 18:52:00,56.0,29.0,30.20,SE,137,1.0,3.0,35,0.00,,,0.00,,2013-02-20 00:52:00,
2013-02-19 19:02:00,56.0,29.0,30.21,SE,134,1.0,3.0,36,0.00,,,0.00,,2013-02-20 01:02:00,
2013-02-19 19:11:00,56.0,29.0,30.21,SE,134,1.0,3.0,36,0.00,,,0.00,,2013-02-20 01:11:00,
2013-02-19 19:21:00,55.0,29.0,30.20,SE,134,1.0,3.0,36,0.00,,,0.00,,2013-02-20 01:21:00,
2013-02-19 19:32:00,55.0,29.0,30.20,ESE,109,2.0,5.0,36,0.00,,,0.00,,2013-02-20 01:32:00,
2013-02-19 19:42:00,55.0,29.0,30.20,ESE,109,2.0,5.0,36,0.00,,,0.00,,2013-02-20 01:42:00,
2013-02-19 19:51:00,55.0,29.0,30.19,East,101,1.0,5.0,36,0.00,,,0.00,,2013-02-20 01:51:00,
2013-02-19 20:01:00,55.0,29.0,30.19,ESE,106,2.0,5.0,36,0.00,,,0.00,,2013-02-20 02:01:00,
2013-02-19 20:11:00,55.0,29.0,30.19,ESE,106,2.0,5.0,36,0.00,,,0.00,,2013-02-20 02:11:00,
2013-02-19 20:21:00,55.0,29.0,30.19,East,88,1.0,3.0,36,0.00,,,0.00,,2013-02-20 02:21:00,
2013-02-19 20:31:00,54.0,28.0,30.19,East,95,1.0,6.0,37,0.00,,,0.00,,2013-02-20 02:31:00,
2013-02-19 20:42:00,54.0,28.0,30.19,East,95,1.0,6.0,37,0.00,,,0.00,,2013-02-20 02:42:00,
2013-02-19 20:52:00,54.0,28.0,30.20,East,101,1.0,3.0,37,0.00,,,0.00,,2013-02-20 02:52:00,
2013-02-19 21:01:00,54.0,28.0,30.21,East,97,1.0,3.0,37,0.00,,,0.00,,2013-02-20 03:01:00,
2013-02-19 21:12:00,54.0,28.0,30.21,East,97,1.0,3.0,37,0.00,,,0.00,,2013-02-20 03:12:00,
2013-02-19 21:22:00,54.0,28.0,30.21,East,98,1.0,3.0,37,0.00,,,0.00,,2013-02-20 03:22:00,
2013-02-19 21:32:00,54.0,28.0,30.21,SE,126,2.0,3.0,37,0.00,,,0.00,,2013-02-20 03:32:00,
2013-02-19 21:41:00,54.0,28.0,30.21,SE,126,2.0,3.0,37,0.00,,,0.00,,2013-02-20 03:41:00,
2013-02-19 21:51:00,54.0,28.0,30.21,SE,126,1.0,3.0,37,0.00,,,0.00,,2013-02-20 03:51:00,
2013-02-19 22:01:00,53.0,32.0,30.21,ESE,112,1.0,5.0,45,0.00,,,0.00,,2013-02-20 04:01:00,
2013-02-19 22:21:00,52.0,33.0,30.22,SE,127,0.0,5.0,49,0.00,,,0.00,,2013-02-20 04:21:00,
2013-02-19 22:31:00,52.0,36.0,30.22,SE,127,0.0,1.0,54,0.00,,,0.00,,2013-02-20 04:31:00,
2013-02-19 22:41:00,52.0,36.0,30.22,SE,127,0.0,1.0,54,0.00,,,0.00,,2013-02-20 04:41:00,
2013-02-19 22:52:00,50.0,35.0,30.21,SE,127,0.0,2.0,57,0.00,,,0.00,,2013-02-20 04:52:00,
2013-02-19 23:02:00,50.0,35.0,30.21,East,101,1.0,3.0,56,0.00,,,0.00,,2013-02-20 05:02:00,
2013-02-19 23:12:00,50.0,35.0,30.21,East,101,1.0,3.0,56,0.00,,,0.00,,2013-02-20 05:12:00,
2013-02-19 23:22:00,50.0,34.0,30.19,ESE,108,1.0,5.0,55,0.00,,,0.00,,2013-02-20 05:22:00,
2013-02-19 23:32:00,50.0,34.0,30.19,ESE,103,2.0,5.0,53,0.00,,,0.00,,2013-02-20 05:32:00,
2013-02-19 23:43:00,50.0,34.0,30.19,ESE,103,2.0,5.0,53,0.00,,,0.00,,2013-02-20 05:43:00,
2013-02-19 23:52:00,50.0,34.0,30.19,East,96,2.0,5.0,53,0.00,,,0.00,,2013-02-20 05:52:00,